When you browse on this site, cookies collect data to enhance your experience and personalize the content and advertising you see.
Visit our Privacy Policy to learn more. By continuing to use the site, you agree to this use of cookies and data.
  • In Austria
  • List of Countries
  • For 7 days
  • Water Temperature
  • Satellite Maps
  • Weather Map
  • News
  • Weather Widgets
  • user-avatar
    Login

    Hourly Weather Shusha

    Today, 17 July, Wednesday

    Time Temperature Precipitation Wind Pressure Humidity
    00:00 +20°C° 0 mm 2 mps 655 mmHg 69%
    01:00 +20°C° 0 mm 1 mps 655 mmHg 69%
    02:00 +20°C° 0 mm 1 mps 655 mmHg 69%
    03:00 +19°C° 0 mm 1 mps 655 mmHg 70%
    04:00 +20°C° 0 mm 1 mps 655 mmHg 70%
    05:00 +20°C° 0 mm 1 mps 656 mmHg 69%
    06:00 +21°C° 0 mm 1 mps 656 mmHg 68%
    07:00 +22°C° 0 mm 1 mps 656 mmHg 64%
    08:00 +23°C° 0 mm 2 mps 657 mmHg 60%
    09:00 +24°C° 0 mm 2 mps 657 mmHg 56%
    10:00 +25°C° 0 mm 2 mps 657 mmHg 54%
    11:00 +26°C° 0 mm 3 mps 657 mmHg 53%
    12:00 +27°C° 0 mm 3 mps 657 mmHg 52%
    13:00 +28°C° 0 mm 4 mps 657 mmHg 50%
    14:00 +28°C° 0 mm 4 mps 656 mmHg 49%
    15:00 +28°C° 0 mm 4 mps 656 mmHg 48%
    16:00 +27°C° 0 mm 4 mps 656 mmHg 51%
    17:00 +26°C° 0 mm 4 mps 656 mmHg 55%
    18:00 +25°C° 0 mm 4 mps 656 mmHg 58%
    19:00 +24°C° 0 mm 3 mps 656 mmHg 63%
    20:00 +21°C° 0 mm 2 mps 656 mmHg 68%
    21:00 +20°C° 0 mm 1 mps 655 mmHg 73%
    22:00 +20°C° 0 mm 1 mps 655 mmHg 72%
    23:00 +20°C° 0 mm 1 mps 655 mmHg 71%

    Tomorrow, 18 July, Thursday

    Time Temperature Precipitation Wind Pressure Humidity
    00:00 +19°C° 0 mm 2 mps 656 mmHg 69%
    01:00 +20°C° 0 mm 1 mps 655 mmHg 69%
    02:00 +20°C° 0 mm 1 mps 655 mmHg 69%
    03:00 +19°C° 0 mm 1 mps 655 mmHg 70%
    04:00 +20°C° 0 mm 1 mps 656 mmHg 68%
    05:00 +20°C° 0 mm 1 mps 656 mmHg 66%
    06:00 +21°C° 0 mm 1 mps 656 mmHg 65%
    07:00 +22°C° 0 mm 1 mps 657 mmHg 60%
    08:00 +24°C° 0 mm 1 mps 657 mmHg 56%
    09:00 +25°C° 0 mm 2 mps 657 mmHg 51%
    10:00 +26°C° 0 mm 2 mps 657 mmHg 49%
    11:00 +27°C° 0 mm 2 mps 657 mmHg 46%
    12:00 +29°C° 0 mm 3 mps 657 mmHg 43%
    13:00 +29°C° 0 mm 2 mps 657 mmHg 41%
    14:00 +30°C° 0 mm 2 mps 657 mmHg 40%
    15:00 +31°C° 0 mm 2 mps 657 mmHg 38%
    16:00 +30°C° 0 mm 2 mps 656 mmHg 41%
    17:00 +29°C° 0 mm 2 mps 656 mmHg 44%
    18:00 +28°C° 0 mm 2 mps 656 mmHg 47%
    19:00 +26°C° 0 mm 1 mps 656 mmHg 52%
    20:00 +24°C° 0 mm 1 mps 655 mmHg 57%
    21:00 +22°C° 0 mm 1 mps 655 mmHg 61%
    22:00 +22°C° 0 mm 1 mps 655 mmHg 61%
    23:00 +22°C° 0 mm 1 mps 656 mmHg 61%

    Day after tomorrow, 19 July, Friday

    Time Temperature Precipitation Wind Pressure Humidity
    00:00 +21°C° 0 mm 2 mps 656 mmHg 60%
    01:00 +21°C° 0 mm 1 mps 656 mmHg 61%
    02:00 +21°C° 0 mm 1 mps 656 mmHg 61%
    03:00 +21°C° 0 mm 1 mps 656 mmHg 62%
    04:00 +21°C° 0 mm 1 mps 656 mmHg 62%
    05:00 +22°C° 0 mm 1 mps 657 mmHg 63%
    06:00 +22°C° 0 mm 1 mps 657 mmHg 64%
    07:00 +23°C° 0 mm 1 mps 657 mmHg 60%
    08:00 +25°C° 0 mm 2 mps 658 mmHg 56%
    09:00 +26°C° 0 mm 2 mps 659 mmHg 51%
    10:00 +27°C° 0 mm 2 mps 659 mmHg 50%
    11:00 +28°C° 0 mm 3 mps 659 mmHg 48%
    12:00 +29°C° 0 mm 3 mps 659 mmHg 47%
    13:00 +29°C° 0 mm 3 mps 659 mmHg 46%
    14:00 +30°C° 0 mm 3 mps 658 mmHg 46%
    15:00 +30°C° 0 mm 3 mps 658 mmHg 46%
    16:00 +29°C° 0 mm 3 mps 658 mmHg 47%
    17:00 +28°C° 0 mm 3 mps 658 mmHg 49%
    18:00 +28°C° 0 mm 2 mps 658 mmHg 51%
    19:00 +26°C° 0 mm 2 mps 659 mmHg 55%
    20:00 +24°C° 0 mm 2 mps 659 mmHg 59%
    21:00 +23°C° 0 mm 1 mps 659 mmHg 63%
    22:00 +23°C° 0 mm 1 mps 659 mmHg 64%
    23:00 +22°C° 0 mm 1 mps 660 mmHg 64%

    20 July, Saturday

    Time Temperature Precipitation Wind Pressure Humidity
    00:00 +21°C° 0 mm 2 mps 660 mmHg 64%
    01:00 +22°C° 0 mm 1 mps 660 mmHg 65%
    02:00 +21°C° 0 mm 1 mps 660 mmHg 65%
    03:00 +21°C° 0 mm 1 mps 660 mmHg 66%
    04:00 +21°C° 0 mm 1 mps 660 mmHg 65%
    05:00 +22°C° 0 mm 1 mps 661 mmHg 64%
    06:00 +22°C° 0 mm 1 mps 661 mmHg 63%
    07:00 +24°C° 0 mm 2 mps 662 mmHg 57%
    08:00 +25°C° 0 mm 2 mps 662 mmHg 51%
    09:00 +27°C° 0 mm 3 mps 663 mmHg 45%
    10:00 +28°C° 0 mm 3 mps 663 mmHg 43%
    11:00 +29°C° 0 mm 4 mps 663 mmHg 40%
    12:00 +30°C° 0 mm 5 mps 663 mmHg 37%
    13:00 +30°C° 0 mm 5 mps 663 mmHg 37%
    14:00 +30°C° 0 mm 5 mps 663 mmHg 37%
    15:00 +30°C° 0 mm 5 mps 662 mmHg 37%
    16:00 +29°C° 0 mm 5 mps 662 mmHg 40%
    17:00 +28°C° 0 mm 5 mps 662 mmHg 43%
    18:00 +27°C° 0 mm 4 mps 662 mmHg 46%
    19:00 +25°C° 0 mm 4 mps 662 mmHg 52%
    20:00 +22°C° 0 mm 3 mps 662 mmHg 57%
    21:00 +20°C° 0 mm 2 mps 662 mmHg 63%
    22:00 +20°C° 0 mm 2 mps 662 mmHg 63%
    23:00 +20°C° 0 mm 2 mps 662 mmHg 63%

    21 July, Sunday

    Time Temperature Precipitation Wind Pressure Humidity
    00:00 +19°C° 0 mm 2 mps 662 mmHg 63%
    01:00 +20°C° 0 mm 1 mps 662 mmHg 63%
    02:00 +20°C° 0 mm 1 mps 662 mmHg 63%
    03:00 +20°C° 0 mm 1 mps 662 mmHg 63%
    04:00 +20°C° 0 mm 1 mps 662 mmHg 62%
    05:00 +21°C° 0 mm 1 mps 662 mmHg 62%
    06:00 +21°C° 0 mm 1 mps 662 mmHg 61%
    07:00 +22°C° 0 mm 1 mps 662 mmHg 57%
    08:00 +24°C° 0 mm 2 mps 662 mmHg 52%
    09:00 +25°C° 0 mm 2 mps 663 mmHg 47%
    10:00 +27°C° 0 mm 3 mps 663 mmHg 45%
    11:00 +28°C° 0 mm 3 mps 662 mmHg 42%
    12:00 +29°C° 0 mm 3 mps 662 mmHg 39%
    13:00 +30°C° 0 mm 3 mps 662 mmHg 38%
    14:00 +30°C° 0 mm 3 mps 661 mmHg 37%
    15:00 +31°C° 0 mm 3 mps 661 mmHg 36%
    16:00 +30°C° 0 mm 3 mps 661 mmHg 39%
    17:00 +29°C° 0 mm 2 mps 660 mmHg 42%
    18:00 +28°C° 0 mm 2 mps 660 mmHg 45%
    19:00 +26°C° 0 mm 2 mps 660 mmHg 49%
    20:00 +24°C° 0 mm 1 mps 660 mmHg 54%
    21:00 +22°C° 0 mm 1 mps 660 mmHg 59%
    22:00 +22°C° 0 mm 1 mps 659 mmHg 59%
    23:00 +22°C° 0 mm 1 mps 659 mmHg 59%

    22 July, Monday

    Time Temperature Precipitation Wind Pressure Humidity
    00:00 +22°C° 0 mm 1 mps 659 mmHg 60%
    01:00 +21°C° 0 mm 1 mps 659 mmHg 60%
    02:00 +21°C° 0 mm 1 mps 659 mmHg 61%
    03:00 +21°C° 0 mm 1 mps 658 mmHg 62%
    04:00 +21°C° 0 mm 1 mps 659 mmHg 61%
    05:00 +22°C° 0 mm 1 mps 659 mmHg 61%
    06:00 +22°C° 0 mm 1 mps 659 mmHg 60%
    07:00 +24°C° 0 mm 1 mps 659 mmHg 55%
    08:00 +25°C° 0 mm 1 mps 660 mmHg 49%
    09:00 +27°C° 0 mm 2 mps 660 mmHg 44%
    10:00 +28°C° 0 mm 2 mps 660 mmHg 42%
    11:00 +29°C° 0 mm 3 mps 660 mmHg 40%
    12:00 +30°C° 0 mm 3 mps 660 mmHg 38%
    13:00 +30°C° 0 mm 3 mps 659 mmHg 38%
    14:00 +30°C° 0 mm 3 mps 659 mmHg 37%
    15:00 +32°C° 0 mm 4 mps 659 mmHg 37%
    16:00 +30°C° 0 mm 3 mps 659 mmHg 39%
    17:00 +29°C° 0 mm 3 mps 658 mmHg 40%
    18:00 +28°C° 0 mm 3 mps 658 mmHg 42%
    19:00 +26°C° 0 mm 3 mps 658 mmHg 46%
    20:00 +24°C° 0 mm 2 mps 658 mmHg 50%
    21:00 +22°C° 0 mm 1 mps 658 mmHg 54%
    22:00 +22°C° 0 mm 1 mps 658 mmHg 54%
    23:00 +21°C° 0 mm 1 mps 658 mmHg 53%
    Show more